Voltar ao catálogo

FENGYUN 2E

AtivoMeteoGEO
NORAD 33463·PAYLOAD·🇨🇳 China

Lançado Dec 23, 2008 de Xichang Satellite Launch Center

Loading…

TLE

AtualizadoSource: Space-Track

Época: Sep 14, 2026, 21:51 UTC

1 33463U 08066A   26257.91099403  .00000017  00000-0  00000-0 0  9994
2 33463   9.4685  53.3692 0000564 138.3177  26.1989  0.99118017 64894

Acompanhe FENGYUN 2E em tempo real com AllMySat

Download on the App Store